Погода в Бойце Кузнецове

Россия / Приморский край     42°57′09″N   133°04′03″E
темп.,
°C
ветер,
м/с
пор.,
м/с
влажн.,
%
обл.,
%
осадки,
мм/ч
давл.,
гПа
погр.,
м
12 августа, пт
пт1201:00+16с11955 0.0 100311
04:00+16с11943 0.0 100311
07:00+16с129189 0.0 100329
10:00+23сз13590 0.0 1004807
13:00+26зсз46430 0.0 10041969
16:00+26сз47410 0.0 10032034
19:00+22зюз127334 0.0 100434
22:00+17сз118395 0.0 100711
13 августа, сб
сб1301:00+17ссв1182100 0.0 100711
04:00+17ю0080100 0.0 100712
07:00+17ююз1296100 0.3 100849
10:00+18ююв0199100 2.0 1009110
13:00+18ююв1296100 0.7 1008267
16:00+20ююз2386100 1.4 1007694
19:00+19ююз128973 0.3 1008421
22:00+16ююв0098100 0.4 100811
14 августа, вс
вс1401:00+15ссв11985 0.0 100811
04:00+15ссв119884 0.0 100724
07:00+15ссв22979 0.0 100858
10:00+22ссв11701 0.0 1007433
13:00+28ю115017 0.0 10061429
16:00+26ююз336140 0.1 1005681
19:00+21ююз2390100 0.6 100694
22:00+18ююз1194100 0.6 100613
15 августа, пн
пн1501:00+17всв119390 0.0 100613
04:00+17в1192100 0.0 100416
07:00+17всв2294100 0.2 100345
10:00+19вюв3995100 1.4 1001657
13:00+17вюв41297100 3.1 999789
16:00+18в41294100 4.1 996768
19:00+18в2692100 0.2 995381
22:00+18ссв2395100 0.2 996125
16 августа, вт
вт1601:00+17ссв2395100 0.0 995106
04:00+17с1294100 0.1 99551
07:00+17ссв1196100 0.2 99618
10:00+18сз1197100 0.6 99652
13:00+19ю019599 0.7 997232
16:00+21зюз239126 3.9 997448
19:00+21ссз12944 2.4 999122
22:00+17ссв22973 2.6 100244